SHT13C EGNT-EGLL

Flight info

Callsign SHT13C
Flight time N/A
Altitude 27000
Route GIRLI P18 GASKO P16 RIBEL UP16 CROFT DCT NUGRA
Aircraft A20N/M-SDE2E3FGHIRWXY/LB1

Departure

Time 2026-05-04 14:28
Airport Newcastle International Airport (EGNT)

Arrival

Time N/A
Airport London Heathrow Airport (EGLL)
Time Latitude Longitude Altitude Speed Heading
2026-05-04 14:17 55.03657 -1.70647 270 ft 0 kts 349°
2026-05-04 14:22 55.03652 -1.70646 270 ft 2 kts 349°
2026-05-04 14:22 55.03636 -1.70640 270 ft 2 kts 349°
2026-05-04 14:22 55.03620 -1.70641 270 ft 2 kts 20°
2026-05-04 14:22 55.03618 -1.70642 270 ft 0 kts 26°
2026-05-04 14:24 55.03620 -1.70639 270 ft 3 kts 38°
2026-05-04 14:24 55.03716 -1.70483 270 ft 30 kts 40°
2026-05-04 14:25 55.03774 -1.70188 267 ft 26 kts 90°
2026-05-04 14:25 55.03903 -1.69250 257 ft 50 kts 65°
2026-05-04 14:25 55.04050 -1.68696 252 ft 50 kts 65°
2026-05-04 14:26 55.04195 -1.68146 250 ft 50 kts 65°
2026-05-04 14:26 55.04329 -1.67631 247 ft 34 kts 74°
2026-05-04 14:26 55.04256 -1.67359 244 ft 20 kts 179°
2026-05-04 14:26 55.04199 -1.67451 246 ft 9 kts 245°
2026-05-04 14:27 55.04187 -1.67498 246 ft 0 kts 245°
2026-05-04 14:27 55.04181 -1.67518 247 ft 13 kts 245°
2026-05-04 14:27 55.04041 -1.68043 251 ft 82 kts 245°
2026-05-04 14:28 55.03708 -1.69298 270 ft 144 kts 245°
2026-05-04 14:28 55.03291 -1.70908 905 ft 144 kts 247°
2026-05-04 14:28 55.02857 -1.72431 1827 ft 136 kts 247°
2026-05-04 14:28 55.02437 -1.74012 2347 ft 157 kts 247°
2026-05-04 14:29 55.00479 -1.76862 3153 ft 219 kts 205°
2026-05-04 14:29 54.97284 -1.78846 4476 ft 254 kts 201°
2026-05-04 14:30 54.95605 -1.79864 5505 ft 256 kts 201°
2026-05-04 14:30 54.93919 -1.80905 6487 ft 258 kts 201°
2026-05-04 14:30 54.90462 -1.83073 8198 ft 271 kts 202°
2026-05-04 14:31 54.88689 -1.84195 9083 ft 277 kts 202°
2026-05-04 14:31 54.85009 -1.86525 10832 ft 286 kts 202°
2026-05-04 14:32 54.81118 -1.88369 12537 ft 301 kts 179°
2026-05-04 14:32 54.79036 -1.87385 13004 ft 324 kts 158°
2026-05-04 14:32 54.76949 -1.85571 13333 ft 347 kts 154°
2026-05-04 14:32 54.74746 -1.83580 13657 ft 368 kts 154°
2026-05-04 14:33 54.72341 -1.81794 14082 ft 380 kts 165°
2026-05-04 14:33 54.69761 -1.81147 15089 ft 370 kts 182°
2026-05-04 14:33 54.67232 -1.81398 16324 ft 358 kts 188°
2026-05-04 14:33 54.64806 -1.81989 17557 ft 347 kts 191°
2026-05-04 14:34 54.62468 -1.82740 18721 ft 336 kts 193°
2026-05-04 14:34 54.60206 -1.83539 19770 ft 326 kts 193°
2026-05-04 14:34 54.58019 -1.84321 20797 ft 316 kts 193°
2026-05-04 14:34 54.55890 -1.85064 21778 ft 308 kts 192°
2026-05-04 14:35 54.53826 -1.85762 22534 ft 307 kts 192°
2026-05-04 14:35 54.51687 -1.86464 22857 ft 320 kts 191°
2026-05-04 14:35 54.49444 -1.87183 23088 ft 335 kts 191°
2026-05-04 14:35 54.47102 -1.87922 23318 ft 350 kts 191°
2026-05-04 14:36 54.44657 -1.88686 23549 ft 363 kts 190°
2026-05-04 14:36 54.42122 -1.89475 23746 ft 377 kts 190°
2026-05-04 14:36 54.39500 -1.90292 23934 ft 389 kts 190°
2026-05-04 14:36 54.36790 -1.91136 24113 ft 402 kts 190°
2026-05-04 14:37 54.34002 -1.92004 24301 ft 413 kts 190°
2026-05-04 14:37 54.31134 -1.92897 24476 ft 424 kts 190°
2026-05-04 14:37 54.28193 -1.93818 24648 ft 435 kts 191°
2026-05-04 14:37 54.25232 -1.95141 24810 ft 445 kts 198°
2026-05-04 14:38 54.22355 -1.97247 24967 ft 455 kts 208°
2026-05-04 14:38 54.19689 -2.00247 25126 ft 464 kts 218°
2026-05-04 14:38 54.17180 -2.03812 25288 ft 473 kts 221°
2026-05-04 14:38 54.14731 -2.07628 25512 ft 479 kts 223°
2026-05-04 14:39 54.12312 -2.11563 25902 ft 482 kts 224°
2026-05-04 14:39 54.09931 -2.15482 26356 ft 482 kts 224°
2026-05-04 14:39 54.07515 -2.19443 26807 ft 483 kts 224°
2026-05-04 14:40 54.02499 -2.27069 27048 ft 485 kts 215°
2026-05-04 14:40 53.99591 -2.29987 27052 ft 485 kts 205°
2026-05-04 14:40 53.96513 -2.32350 27050 ft 486 kts 202°
2026-05-04 14:40 53.93367 -2.34504 27050 ft 489 kts 200°
2026-05-04 14:41 53.90166 -2.36557 27052 ft 493 kts 199°
2026-05-04 14:41 53.86944 -2.38568 27049 ft 494 kts 199°
2026-05-04 14:41 53.80482 -2.42595 27056 ft 495 kts 199°
2026-05-04 14:42 53.74031 -2.46669 27058 ft 495 kts 199°
2026-05-04 14:42 53.70809 -2.48716 27058 ft 495 kts 199°
2026-05-04 14:42 53.67586 -2.50722 27059 ft 494 kts 197°
2026-05-04 14:43 53.64249 -2.52094 27060 ft 492 kts 187°
2026-05-04 14:43 53.60845 -2.52463 27060 ft 489 kts 176°
2026-05-04 14:43 53.57516 -2.51818 27065 ft 487 kts 168°
2026-05-04 14:43 53.54197 -2.50748 27064 ft 486 kts 165°
2026-05-04 14:44 53.50898 -2.49473 27069 ft 486 kts 164°
2026-05-04 14:44 53.47615 -2.48113 27070 ft 485 kts 163°
2026-05-04 14:44 53.44336 -2.46734 27070 ft 485 kts 163°
2026-05-04 14:44 53.41054 -2.45376 27076 ft 485 kts 163°
2026-05-04 14:45 53.37770 -2.44043 27078 ft 485 kts 164°
2026-05-04 14:45 53.34494 -2.42731 27072 ft 485 kts 164°
2026-05-04 14:45 53.31202 -2.41424 27078 ft 485 kts 164°
2026-05-04 14:45 53.27921 -2.40129 27077 ft 485 kts 164°
2026-05-04 14:46 53.24636 -2.38837 27080 ft 484 kts 164°
2026-05-04 14:46 53.21356 -2.37551 27076 ft 484 kts 164°
2026-05-04 14:46 53.18075 -2.36266 27071 ft 484 kts 164°
2026-05-04 14:46 53.14796 -2.34985 27069 ft 484 kts 164°
2026-05-04 14:47 53.11517 -2.33707 27070 ft 483 kts 164°
2026-05-04 14:47 53.08246 -2.32433 27061 ft 483 kts 164°
2026-05-04 14:47 53.04971 -2.31118 27059 ft 481 kts 161°
2026-05-04 14:47 53.01917 -2.29141 27066 ft 476 kts 150°
2026-05-04 14:48 52.99061 -2.26381 27066 ft 474 kts 146°
2026-05-04 14:48 52.96272 -2.23450 27060 ft 474 kts 145°
2026-05-04 14:48 52.93494 -2.20503 27062 ft 473 kts 145°
2026-05-04 14:48 52.90713 -2.17566 27061 ft 473 kts 145°
2026-05-04 14:49 52.87951 -2.14663 27069 ft 473 kts 146°
2026-05-04 14:49 52.85164 -2.11744 27069 ft 473 kts 146°
2026-05-04 14:49 52.82367 -2.08825 26998 ft 468 kts 146°
2026-05-04 14:49 52.79666 -2.06014 26320 ft 452 kts 146°
2026-05-04 14:50 52.77025 -2.03268 25044 ft 449 kts 147°
2026-05-04 14:50 52.74365 -2.00506 23763 ft 454 kts 148°
2026-05-04 14:50 52.71746 -1.97791 23273 ft 452 kts 148°
2026-05-04 14:50 52.69925 -1.95907 23086 ft 458 kts 148°
2026-05-04 14:51 52.66630 -1.92503 22744 ft 461 kts 148°
2026-05-04 14:51 52.64813 -1.90628 22544 ft 460 kts 148°
2026-05-04 14:51 52.61758 -1.87480 22239 ft 458 kts 148°
2026-05-04 14:51 52.59960 -1.85629 22062 ft 457 kts 148°
2026-05-04 14:52 52.57235 -1.82829 21788 ft 455 kts 148°
2026-05-04 14:52 52.54832 -1.80362 21555 ft 453 kts 148°
2026-05-04 14:52 52.52128 -1.77590 21294 ft 452 kts 148°
2026-05-04 14:52 52.49505 -1.74906 21034 ft 450 kts 148°
2026-05-04 14:53 52.46839 -1.72181 20774 ft 448 kts 149°
2026-05-04 14:53 52.44192 -1.69480 20522 ft 447 kts 149°
2026-05-04 14:53 52.41723 -1.66964 20284 ft 445 kts 149°
2026-05-04 14:53 52.39109 -1.64303 20076 ft 444 kts 149°
2026-05-04 14:54 52.36747 -1.61903 20053 ft 444 kts 149°
2026-05-04 14:54 52.34122 -1.59238 20050 ft 443 kts 149°
2026-05-04 14:54 52.31495 -1.56575 20049 ft 443 kts 149°
2026-05-04 14:54 52.29276 -1.54329 20048 ft 443 kts 149°
2026-05-04 14:55 52.26691 -1.51716 20049 ft 442 kts 149°
2026-05-04 14:55 52.24112 -1.49112 20048 ft 442 kts 149°
2026-05-04 14:55 52.21541 -1.46341 19922 ft 439 kts 144°
2026-05-04 14:55 52.19169 -1.43226 19492 ft 438 kts 141°
2026-05-04 14:56 52.16847 -1.39981 19048 ft 438 kts 140°
2026-05-04 14:56 52.14543 -1.36740 18612 ft 436 kts 140°
2026-05-04 14:56 52.12252 -1.33526 18160 ft 433 kts 140°
2026-05-04 14:56 52.09969 -1.30336 17694 ft 431 kts 140°
2026-05-04 14:57 52.07717 -1.27199 17380 ft 419 kts 141°
2026-05-04 14:57 52.05558 -1.24195 17092 ft 397 kts 141°
2026-05-04 14:57 52.03532 -1.21380 16711 ft 374 kts 141°
2026-05-04 14:57 52.01601 -1.18704 16337 ft 354 kts 141°
2026-05-04 14:58 51.99794 -1.16203 15981 ft 337 kts 141°
2026-05-04 14:58 51.98045 -1.13786 15638 ft 325 kts 141°
2026-05-04 14:58 51.96307 -1.11392 15302 ft 337 kts 141°
2026-05-04 14:58 51.94440 -1.08826 14800 ft 362 kts 141°
2026-05-04 14:59 51.92488 -1.06141 13722 ft 375 kts 141°
2026-05-04 14:59 51.90450 -1.03339 13140 ft 393 kts 141°
2026-05-04 14:59 51.86259 -0.97580 12501 ft 396 kts 140°
2026-05-04 15:00 51.84494 -0.94169 12040 ft 397 kts 122°
2026-05-04 15:00 51.83242 -0.90215 11646 ft 389 kts 116°
2026-05-04 15:00 51.82129 -0.86345 11385 ft 372 kts 116°
2026-05-04 15:01 51.79997 -0.79072 10820 ft 346 kts 117°
2026-05-04 15:01 51.78956 -0.75612 10440 ft 338 kts 117°
2026-05-04 15:01 51.76846 -0.68685 9981 ft 313 kts 118°
2026-05-04 15:02 51.75893 -0.65583 9757 ft 302 kts 118°
2026-05-04 15:02 51.74958 -0.62547 9101 ft 306 kts 118°
2026-05-04 15:02 51.73991 -0.59423 8227 ft 317 kts 118°
2026-05-04 15:02 51.72975 -0.56199 7510 ft 328 kts 122°
2026-05-04 15:03 51.71610 -0.53465 7149 ft 332 kts 136°
2026-05-04 15:03 51.69941 -0.50899 6736 ft 330 kts 139°
2026-05-04 15:03 51.68262 -0.48452 6307 ft 311 kts 140°
2026-05-04 15:03 51.66728 -0.46228 5985 ft 290 kts 139°
2026-05-04 15:04 51.65274 -0.44115 5590 ft 276 kts 139°
2026-05-04 15:04 51.63866 -0.42062 5047 ft 270 kts 138°
2026-05-04 15:04 51.62482 -0.40040 4446 ft 268 kts 137°
2026-05-04 15:04 51.61112 -0.38036 3812 ft 266 kts 137°
2026-05-04 15:05 51.59695 -0.35962 3243 ft 286 kts 136°
2026-05-04 15:05 51.58169 -0.33729 3019 ft 305 kts 136°
2026-05-04 15:05 51.56577 -0.31396 2987 ft 313 kts 136°
2026-05-04 15:05 51.54964 -0.29034 2990 ft 314 kts 136°
2026-05-04 15:06 51.53343 -0.26666 2986 ft 314 kts 136°
2026-05-04 15:06 51.51729 -0.24312 2985 ft 306 kts 136°
2026-05-04 15:06 51.50400 -0.21831 2994 ft 282 kts 122°